Regional Weather Roundup
Issued by NWS

Home | Current Version | Previous Version | Graphics & Text | Print | Product List | Glossary On
Versions: 1 2 3 4 5 6 7 8 9 10 11 12 13 14 15 16 17 18 19 20 21 22 23 24 25 26 27 28 29 30 31 32 33 34 35 36 37 38 39 40 41 42 43 44 45 46 47 48 49 50
158
ASUS45 KTFX 200710
RWRMT
MONTANA REGIONAL WEATHER ROUNDUP
NATIONAL WEATHER SERVICE GREAT FALLS MT
100 AM MDT FRI APR 20 2018

NOTE: "FAIR" INDICATES FEW OR NO CLOUDS BELOW 12000 FEET WITH NO
SIGNIFICANT WEATHER AND/OR OBSTRUCTIONS TO VISIBILITY.

MTZ001>007-043-200800-
WEST OF THE DIVIDE

CITY           SKY/WX    TMP DP  RH WIND       PRES   REMARKS
KALISPELL      FAIR      31  28  89 CALM      30.12R
MISSOULA       FAIR      39  26  59 CALM      30.12R
BUTTE          FAIR      33  25  72 SE6       30.11R WCI  28
MULLAN PASS    FAIR      35  22  58 VRB6      30.15R WCI  30
ANACONDA         N/A     37  21  52 SW3       30.12R
DEER LODGE       N/A     39  25  56 NW5       30.13S
HAMILTON         N/A     37  27  65 MISG      30.12R
RONAN            N/A     37  30  75 NW3       30.13R
$$

MTZ008-052>055-200800-
SOUTHWEST MONTANA

CITY           SKY/WX    TMP DP  RH WIND       PRES   REMARKS
BOZEMAN        FAIR      42  26  53 W5        30.07R
DILLON         FAIR      36  26  67 SE8       30.06S WCI  30
ENNIS          PTCLDY    37  27  65 E5        30.09R
W YELLOWSTONE  FAIR      39  23  52 NE10      30.04R
THREE FORKS      N/A     42  29  60 CALM      30.05S
TWIN BRIDGES     N/A     44  24  45 N9        30.03S
$$

MTZ009-010-012-014-046-048-049-054-200800-
EAST SLOPES AND CENTRAL MONTANA

CITY           SKY/WX    TMP DP  RH WIND       PRES   REMARKS
CUT BANK       FAIR      39  34  82 S3        30.08S
GREAT FALLS    FAIR      34  30  85 SW8       30.07R WCI  27
HELENA         FAIR      41  29  62 W9        30.08R
BOWMANS CRNR   FAIR      36  27  69 W5        30.08S
CHOTEAU          N/A     36  30  80 SW5       30.11S
FAIRFIELD      FAIR      36  31  81 NW8       30.08S WCI  30
POWER          FAIR      36  34  91 NW6       30.07S WCI  31
RAYNESFORD     FAIR      41  29  64 SE6       30.08R
ULM            FAIR      36  31  82 CALM      30.09R
WHITE SULPHUR    N/A     32  27  80 SE6       30.08R WCI  26
$$

MTZ011-013-016-021-045-047-050-051-200800-
NORTH CENTRAL MONTANA

CITY           SKY/WX    TMP DP  RH WIND       PRES   REMARKS
HAVRE          CLOUDY    41  36  82 NE12      30.08R
LEWISTOWN      FAIR      41  32  70 E10       30.08S
N BAR RANCH    FAIR      34  28  80 CALM      30.13S
CHINOOK          N/A     39  36  87 E12       30.11S WCI  32
GEYSER         FAIR      39  30  69 SW12      30.07S WCI  32
GRASS RANGE    FAIR      42  32  70 CALM      30.08R
STANFORD       FAIR      36  27  69 CALM      30.08S
$$

MTZ017>020-022>027-061-062-200800-
NORTHEAST MONTANA

CITY           SKY/WX    TMP DP  RH WIND       PRES   REMARKS
GLASGOW        FAIR      43  35  73 E18       30.15S
GLENDIVE       FAIR      43  30  60 E7        30.20F
JORDAN           N/A     45  33  63 E8        30.13R
MALTA          CLEAR     45  36  70 E9        30.12S
SIDNEY         FAIR      40  33  76 E8        30.24S
WOLF POINT     FAIR      39  35  86 E9        30.21S FOG
PLENTYWOOD       N/A     36  34  93 CALM      30.25S
POPLAR           N/A     39  36  87 NE5       30.22S
SCOBEY           N/A     38  27  65 E13       30.17F WCI  30
$$

MTZ028>42-056>058-200800-
SOUTHCENTRAL AND SOUTHEAST MONTANA

CITY           SKY/WX    TMP DP  RH WIND       PRES   REMARKS
BAKER          FAIR      39  32  76 E14       30.19S WCI  31
BILLINGS       MOCLDY    45  34  65 N10       30.03R
LIVINGSTON     FAIR      38  28  67 CALM      30.07R
MILES CITY     FAIR      47  32  56 SE10      30.12S
BIG TIMBER     CLEAR     41  28  60 NE7       30.09R
FORSYTH          N/A     45  34  65 E9        30.09F
HARLOWTON      FAIR      42  31  66 S3        30.09R
LAUREL           N/A     45  34  65 N13       30.04S
$$

REGIONAL REPORTS...DAKOTAS

CITY           SKY/WX    TMP DP  RH WIND       PRES   REMARKS
WILLISTON      FAIR      38  33  82 E5        30.26S
MINOT          FAIR      34  31  88 SE3       30.31F
DICKINSON      FAIR      35  28  75 SE12      30.23F WCI  27
BEACH          FAIR      39  28  65 SE13      30.24S WCI  32
CROSBY         FAIR      32  32 100 NE7       30.28F WCI  26
TIOGA          FAIR      32  32 100 CALM      30.29S FOG
WATFORD CITY   FAIR      36  36 100 SE13      30.25F WCI  27
BISMARCK       FAIR      34  31  88 SE7       30.34R WCI  28
GRAND FORKS    FAIR      33  32  96 S6        30.38S WCI  28
FARGO          FAIR      38  31  76 S8        30.40S
BUFFALO SD       N/A     41  31  67 E13       30.13S
RAPID CITY     FAIR      40  31  70 SE5       30.20R
$$

REGIONAL REPORTS...WYOMING/IDAHO/WASHINGTON

CITY           SKY/WX    TMP DP  RH WIND       PRES   REMARKS
GILLETTE       FAIR      46  29  51 SE21G28   30.04S
SHERIDAN       FAIR      49  33  54 S10       30.00S
BUFFALO WY     FAIR      43  31  62 S8        30.04F
CODY           FAIR      43  25  49 SW6       30.03S
YELLOWSTONE LA   N/A     29  17  61 CALM      30.09R
IDAHO FALLS    FAIR      45  28  51 N15       29.93R
SALMON         FAIR      43  25  49 S5        30.06R
BOISE          FAIR      51  28  41 W9        30.00R
SPOKANE        FAIR      47  32  56 SW8       30.14S
$$

REGIONAL REPORTS...ALBERTA

CITY           SKY/WX    TMP DP  RH WIND       PRES   REMARKS
CALGARY        PTCLDY    36  27  69 S8        29.99F WCI  29
CARDSTON         N/A     39  23  52 SW10        N/A
EDMONTON       CLEAR     39  27  60 SW9       29.96S
FORT MCMURRAY  CLOUDY    46  28  49 S14G20    29.90F
HIGH LEVEL     CLEAR     43  27  52 S3        29.69S
LETHBRIDGE     CLEAR     39  32  75 S16G23    30.05S WCI  30
LLOYDMINSTER   CLEAR     37  32  81 S13       30.02F WCI  29
MEDICINE HAT   CLEAR     46  34  61 SE18G24   30.04F
MILK RIVER       N/A     37  34  87 S5          N/A
PEACE RIVER    PTCLDY    36  25  64 SW10      29.88R WCI  28
PINCHER CREEK  CLEAR     36  25  64 SW13      30.06S WCI  27
WATERTON GATE    N/A     34  23  64 S6          N/A  WCI  29
$$

REGIONAL REPORTS...SASKATCHEWAN

CITY           SKY/WX    TMP DP  RH WIND       PRES   REMARKS
CORONACH         N/A     34  32  93 E8          N/A  WCI  27
CYPRESS HILLS    N/A     36  28  75 SE8         N/A  WCI  29
ESTEVAN        PTCLDY    30  30 100 E7        30.29F WCI  23
MOOSE JAW        N/A     30  28  93 SE7         N/A  WCI  23
PRINCE ALBERT  PTCLDY    36  28  75 S9        30.23F WCI  29
REGINA         CLEAR     34  28  80 SE15      30.26F WCI  24
ROCKGLEN         N/A     34  30  86 SE9         N/A  WCI  26
SASKATOON      PTCLDY    39  32  75 S17       30.21S WCI  30
SWIFT CURRENT  CLEAR     36  32  87 SE14      30.14F WCI  27
VAL MARIE        N/A     39  32  75 SE18        N/A  WCI  30
$$




USA.gov is the U.S. government's official web portal to all federal, state and local government web resources and services.